Flag for United Arab Emirates Weather past 2 weeks in Sharjah, Sharjah, United Arab Emirates

Now
95 °F

Sunny.


Feels Like: 93 °F
Forecast: 85 / 95 °F
Wind: 2 mph from North

Location: Sharjah International Airport

Current Time: Oct 21, 2014 at 12:15:55 PM

Latest Report: Oct 21, 2014 at 11:00 AM


Visibility: 10 mi

Pressure: 29.98 "Hg

Humidity: 25%

Dew point: 54 °F

Location of SharjahLocation

Historic Weather in Sharjah — Graph

°F

Sharjah temperature yesterday

Maximum temperature yesterday: 95 °F (at 12:00 PM)
Minimum temperature yesterday: 77 °F (at 5:00 AM)
Average temperature yesterday: 86 °F

Past Weeks' High & Low Weather Summary

 TemperatureHumidityPressure
High104 °F (Oct 14, 2:00 PM)89% (Oct 8, 5:00 AM)30.01 "Hg (Oct 8, 5:00 AM)
Low73 °F (Oct 17, 7:00 AM)9% (Oct 14, 2:00 PM)29.74 "Hg (Oct 8, 2:00 AM)
Average89 °F51%29.86 "Hg
* Reported Oct 6 11:00 AM — Oct 21 11:00 AM, Sharjah, Weather by CustomWeather, © 2014

Note: Actual official high and low records may vary slightly from our data, if they occured in-between our weather recording intervals... More about our weather records

Advertising

Sharjah weather history for previous 24 hours

 ConditionsComfort  
Time TempWeatherWind HumidityBarometerVisibility
11:00 AM
Oct 21
95 °FSunny.2 mph25%29.98 "Hg10 mi
9:00 AM84 °FPassing clouds.3 mph55%29.98 "HgN/A
8:00 AM79 °FSunny.3 mph65%29.98 "Hg10 mi
7:00 AM73 °FSunny.3 mph78%29.95 "Hg10 mi
6:00 AM73 °FClear.3 mph78%29.92 "Hg10 mi
5:00 AM75 °FClear.3 mph74%29.89 "Hg10 mi
4:00 AM75 °FClear.3 mph74%29.89 "Hg10 mi
3:00 AM77 °FClear.5 mph74%29.92 "Hg10 mi
2:00 AM79 °FClear.3 mph70%29.92 "Hg10 mi
1:00 AM79 °FClear.3 mph70%29.92 "Hg10 mi
12:00 AM81 °FPassing clouds.3 mph66%29.92 "HgN/A
11:00 PM
Oct 20
82 °FClear.3 mph66%29.92 "Hg10 mi
10:00 PM82 °FClear.3 mph66%29.92 "Hg10 mi
9:00 PM86 °FClear.2 mph59%29.92 "Hg10 mi
8:00 PM88 °FClear.3 mph59%29.92 "Hg10 mi
7:00 PM90 °FClear.7 mph52%29.89 "Hg10 mi
6:00 PM91 °FPassing clouds.7 mph46%29.89 "HgN/A
5:00 PM91 °FSunny.8 mph44%29.86 "Hg10 mi
4:00 PM93 °FPassing clouds.8 mph44%29.86 "HgN/A
3:00 PM93 °FPassing clouds.9 mph39%29.86 "HgN/A
2:00 PM95 °FPassing clouds.7 mph36%29.86 "HgN/A
1:00 PM95 °FPassing clouds.10 mph32%29.86 "HgN/A
12:00 PM95 °FPassing clouds.8 mph34%29.89 "HgN/A
Weather by CustomWeather, © 2014

See weather overviewHow to use our weather pages